Location: *
(51.0333°S, 178.4667°E)
Time: 12:33:29
(UTC+00:00)

MetOp-B - Visible Passes

Search period start: 26 February 2020 00:00
Search period end: 07 March 2020 00:00
Orbit: 819 x 821 km, 98.7° (Epoch: 26 February)

Date Brightness Start Highest point End Pass type
(mag) Time Alt. Az. Time Alt. Az. Time Alt. Az.
26 Feb 4.3 09:42:50 10° SSE 09:48:10 53° E 09:49:00 48° NE visible
26 Feb 5.7 11:23:20 10° S 11:28:01 30° WSW 11:30:21 22° W visible
27 Feb 4.7 09:22:18 10° SSE 09:27:20 37° E 09:27:53 36° ENE visible
27 Feb 5.2 11:02:24 10° S 11:07:29 41° WSW 11:09:14 32° WNW visible
28 Feb 5.2 09:01:56 10° SE 09:06:26 26° E 09:06:46 26° E visible
28 Feb 4.6 10:41:33 10° S 10:46:53 58° WSW 10:48:07 47° WNW visible
28 Feb 6.7 12:23:31 10° SSW 12:25:55 13° SW 12:28:18 10° WSW visible
29 Feb 5.6 08:41:49 10° SE 08:45:28 18° E 08:45:39 18° E visible
29 Feb 4.1 10:20:46 10° SSE 10:26:14 82° WSW 10:27:00 66° NW visible
29 Feb 6.5 12:02:03 10° SSW 12:05:32 18° SW 12:08:21 12° W visible
01 Mar 6.0 08:22:18 10° ESE 08:24:26 12° E 08:24:32 12° E visible
01 Mar 4.0 10:00:03 10° SSE 10:05:31 71° ENE 10:05:53 69° NE visible
01 Mar 6.1 11:40:53 10° S 11:45:07 24° WSW 11:47:13 19° W visible
02 Mar 4.3 09:39:26 10° SSE 09:44:44 50° E 09:44:46 50° E visible
02 Mar 5.6 11:19:52 10° S 11:24:38 32° WSW 11:26:06 28° W visible
03 Mar 4.9 09:18:56 10° SSE 09:23:38 34° E 09:23:38 34° E visible
03 Mar 5.0 10:58:57 10° S 11:04:04 44° WSW 11:04:59 40° W visible
03 Mar 7.0 12:42:41 10° SW 12:42:52 10° SW 12:43:03 10° SW visible
04 Mar 5.3 08:58:35 10° SE 09:02:31 24° E 09:02:31 24° E visible
04 Mar 4.4 10:38:05 10° S 10:43:29 62° WSW 10:43:52 60° W visible
04 Mar 6.7 12:19:55 10° SSW 12:22:33 14° SW 12:25:09 10° WSW visible
05 Mar 5.8 08:38:31 10° SE 08:41:23 17° E 08:41:23 17° E visible
05 Mar 4.1 10:17:20 10° SSE 10:22:44 86° SW 10:22:44 86° SW visible
05 Mar 6.3 11:58:32 10° S 12:02:10 18° SW 12:04:05 15° WSW visible
06 Mar 6.1 08:19:16 10° ESE 08:20:16 11° ESE 08:20:16 11° ESE visible
06 Mar 4.2 09:56:38 10° SSE 10:01:37 64° ESE 10:01:37 64° ESE visible
06 Mar 5.9 11:37:24 10° S 11:41:44 25° WSW 11:42:57 23° WSW visible
